Location: Izdebno
(52.6670°N, 16.2170°E)
Time: 19:14:08
(UTC+01:00)

Transit 2A - Pass Details

Date: 02 February 2023
Orbit: 591 x 964 km, 66.7° (Epoch: 21 March)

Event Time Altitude Azimuth Distance (km) Brightness Sun altitude
Rises 19:42:33 0° 263° (W) 3,120 10.3 -27.4°
Reaches altitude 10° 19:45:06 10° 275° (W) 2,264 9.4 -27.8°
Maximum altitude 19:49:36 29° 334° (NNW) 1,450 7.7 -28.4°
Enters shadow 19:51:33 23° 8° (N) 1,678 7.7 -28.7°
Drops below altitude 10° 19:54:32 10° 34° (NNE) 2,492 - -29.2°
Sets 19:57:29 0° 45° (NE) 3,493 - -29.6°
